Location: ČR
(50.0000°N, 15.0000°E)
Time: 11:09:40
(UTC+02:00)

A-11 Canister half - Pass Details

Date: 16 March 2026
Orbit: 1514 x 1685 km, 47.2° (Epoch: 16 April)

Event Time Altitude Azimuth Distance (km) Brightness Sun altitude
Rises 15:37:00 0° 252° (WSW) 4,864 13.0 21.9°
Reaches altitude 10° 15:40:06 10° 251° (WSW) 3,897 13.0 21.5°
Maximum altitude 15:50:06 74° 169° (S) 1,739 9.7 20.1°
Drops below altitude 10° 16:00:14 10° 87° (E) 3,950 10.7 18.7°
Sets 16:03:24 0° 86° (E) 4,934 11.1 18.2°
